Terug naar catalogus

KUIPER-00476

ActiefCommunicatieVLEO
NORAD 68874·PAYLOAD·🇺🇸 United States

Gelanceerd Apr 28, 2026 vanaf Cape Canaveral Space Force Station

Loading…

Volgende Passages (komende 24 uur)

TLE

VersSource: CelesTrak SupGP

Epoch: Sep 14, 2026, 20:48 UTC

1 68874C 26095L   26257.86684028 -.01111600  00000+0 -94921-1 0  2573
2 68874  51.8905 174.5633 0011447 254.9528 225.0903 14.98241701    13

Volg KUIPER-00476 in realtime met AllMySat

Download on the App Store